Weather History for KCCU - April, 2013

Change the Weather History Date:

Wednesday, April 3, 2013

  Actual Average (KLXV) Record (KLXV)
Temperature  
Mean Temperature 26 °F -  
Max Temperature 33 °F 40 °F 48 °F (1987)
Min Temperature 19 °F 15 °F 3 °F (1999)
Degree Days  
Heating Degree Days 39 37  
Month to date heating degree days 112  
Since 1 July heating degree days 9095  
Cooling Degree Days 0 0  
Month to date cooling degree days 0  
Year to date cooling degree days 0  
Moisture  
Dew Point 18 °F    
Average Humidity 68    
Maximum Humidity 86    
Minimum Humidity 47    
Precipitation  
Precipitation 0.26 in 0.03 in 0.44 in (1989)
Month to date precipitation 0.09  
Year to date precipitation 2.35  
Sea Level Pressure  
Sea Level Pressure 30.22 in    
Wind  
Wind Speed 11 mph (West)    
Max Wind Speed 23 mph    
Max Gust Speed 28 mph    
Visibility 8 miles    
Events Snow    
T = Trace of Precipitation, MM = Missing Value Source: NWS Daily Summary

Daily Weather History Graph

Daily Weather History Graph

Search for Another Location

Airport or City:

Trip Planner

Search our weather history database for the weather conditions in past years. The results will help you decide how hot, cold, wet, or windy it might be!

Date:

Astronomy

Apr. 03, 2013 Rise Set
Actual Time 6:45 AM MDT 7:30 PM MDT
Civil Twilight 6:18 AM MDT 7:58 PM MDT
Nautical Twilight 5:45 AM MDT 8:30 PM MDT
Astronomical Twilight 5:12 AM MDT 9:03 PM MDT
Moon 2:26 AM MDT (4/3) 12:47 PM MDT (4/3)
Length of Visible Light 13h 39m
Length of Day
12h 45m
Last Quarter, 44% of the Moon is Illuminated
Apr 3
Last Quarter
Apr 10
New
Apr 18
First Quarter
Apr 25
Full
May 2
Last Quarter

Hourly Weather History & Observations

Time (MDT) Temp. Windchill Dew Point Humidity Pressure Visibility Wind Dir Wind Speed Gust Speed Precip Events Conditions
12:12 AM 24.8 °F 17.9 °F 19.4 °F 80% 30.12 in 10.0 mi NNE 5.8 mph - N/A   Scattered Clouds
12:32 AM 23.0 °F 17.0 °F 19.4 °F 86% 30.12 in 10.0 mi SSW 4.6 mph - N/A   Scattered Clouds
12:52 AM 23.0 °F 17.0 °F 17.6 °F 80% 30.12 in 4.0 mi WNW 4.6 mph - N/A   Haze
1:12 AM 23.0 °F 15.8 °F 17.6 °F 80% 30.11 in 10.0 mi South 5.8 mph - N/A   Clear
1:32 AM 23.0 °F 17.0 °F 17.6 °F 80% 30.11 in 10.0 mi South 4.6 mph - N/A   Clear
1:52 AM 23.0 °F 14.7 °F 17.6 °F 80% 30.11 in 10.0 mi West 6.9 mph - N/A   Clear
2:12 AM 23.0 °F 15.8 °F 17.6 °F 80% 30.10 in 10.0 mi South 5.8 mph - N/A   Clear
2:32 AM 23.0 °F 17.0 °F 17.6 °F 80% 30.10 in 10.0 mi WSW 4.6 mph - N/A   Clear
2:52 AM 23.0 °F 17.0 °F 17.6 °F 80% 30.10 in 10.0 mi West 4.6 mph - N/A   Clear
3:12 AM 23.0 °F 13.1 °F 17.6 °F 80% 30.11 in 10.0 mi West 9.2 mph - N/A   Clear
3:32 AM 23.0 °F 12.4 °F 17.6 °F 80% 30.12 in 10.0 mi West 10.4 mph - N/A   Clear
3:52 AM 21.2 °F 10.1 °F 15.8 °F 80% 30.12 in 0.2 mi West 10.4 mph - N/A   Haze
4:12 AM 23.0 °F 14.7 °F 17.6 °F 80% 30.12 in 0.2 mi West 6.9 mph - N/A   Haze
4:32 AM 23.0 °F 15.8 °F 17.6 °F 80% 30.12 in 10.0 mi West 5.8 mph - N/A   Overcast
4:52 AM 23.0 °F 14.7 °F 17.6 °F 80% 30.12 in 10.0 mi West 6.9 mph - N/A   Scattered Clouds
5:12 AM 23.0 °F 15.8 °F 17.6 °F 80% 30.12 in 10.0 mi West 5.8 mph - N/A   Clear
5:32 AM 23.0 °F 13.1 °F 17.6 °F 80% 30.14 in 10.0 mi West 9.2 mph - N/A   Clear
5:52 AM 23.0 °F 11.7 °F 17.6 °F 80% 30.14 in 10.0 mi West 11.5 mph - N/A   Clear
6:12 AM 21.2 °F 10.1 °F 17.6 °F 86% 30.15 in 10.0 mi West 10.4 mph - N/A   Clear
6:32 AM 19.4 °F 4.1 °F 14.0 °F 80% 30.15 in 0.2 mi West 18.4 mph - N/A Snow Light Snow
6:52 AM 19.4 °F 5.0 °F 14.0 °F 80% 30.17 in 0.2 mi West 16.1 mph - N/A Snow Heavy Snow
7:12 AM 21.2 °F 8.9 °F 14.0 °F 74% 30.18 in 0.2 mi West 12.7 mph - N/A Snow Light Snow
7:32 AM 23.0 °F 11.7 °F 17.6 °F 80% 30.19 in 0.2 mi West 11.5 mph - N/A   Haze
7:52 AM 23.0 °F 13.1 °F 17.6 °F 80% 30.19 in 0.2 mi West 9.2 mph - N/A Snow Light Snow
8:12 AM 23.0 °F 11.7 °F 17.6 °F 80% 30.20 in 0.2 mi West 11.5 mph - N/A Snow Light Snow
8:32 AM 23.0 °F - 17.6 °F 80% 30.19 in 0.2 mi Calm Calm - N/A Snow Light Snow
8:52 AM 23.0 °F 15.8 °F 17.6 °F 80% 30.20 in 0.2 mi West 5.8 mph - N/A   Haze
9:12 AM 23.0 °F 13.9 °F 17.6 °F 80% 30.20 in 0.5 mi West 8.1 mph - N/A   Haze
9:32 AM 23.0 °F 18.4 °F 17.6 °F 80% 30.20 in 7.0 mi WSW 3.5 mph - N/A   Scattered Clouds
9:52 AM 24.8 °F 16.1 °F 19.4 °F 80% 30.21 in 7.0 mi West 8.1 mph - N/A   Mostly Cloudy
10:12 AM 24.8 °F 16.1 °F 19.4 °F 80% 30.22 in 7.0 mi West 8.1 mph - N/A   Overcast
10:32 AM 26.6 °F 16.8 °F 21.2 °F 80% 30.22 in 10.0 mi West 10.4 mph - N/A   Overcast
10:52 AM 26.6 °F 16.2 °F 21.2 °F 80% 30.22 in 10.0 mi West 11.5 mph - N/A   Mostly Cloudy
11:12 AM 28.4 °F 19.1 °F 23.0 °F 80% 30.23 in 10.0 mi West 10.4 mph - N/A   Mostly Cloudy
11:32 AM 28.4 °F 15.8 °F 23.0 °F 80% 30.23 in 10.0 mi WNW 18.4 mph - N/A   Overcast
11:52 AM 28.4 °F 18.5 °F 23.0 °F 80% 30.23 in 10.0 mi West 11.5 mph 18.4 mph N/A   Mostly Cloudy
12:12 PM 28.4 °F 18.5 °F 23.0 °F 80% 30.23 in 10.0 mi WNW 11.5 mph 20.7 mph N/A   Mostly Cloudy
12:32 PM 28.4 °F 16.6 °F 23.0 °F 80% 30.24 in 10.0 mi West 16.1 mph - N/A   Mostly Cloudy
12:52 PM 30.2 °F 18.5 °F 23.0 °F 75% 30.23 in 10.0 mi West 17.3 mph 21.9 mph N/A   Mostly Cloudy
1:12 PM 32.0 °F 20.8 °F 23.0 °F 69% 30.24 in 10.0 mi West 17.3 mph 24.2 mph 0.04 in   Mostly Cloudy
1:32 PM 32.0 °F 19.8 °F 21.2 °F 64% 30.24 in 10.0 mi West 20.7 mph 24.2 mph 0.11 in   Overcast
1:52 PM 33.8 °F 22.8 °F 21.2 °F 60% 30.25 in 10.0 mi West 18.4 mph 23.0 mph 0.17 in   Mostly Cloudy
2:12 PM 32.0 °F 20.8 °F 21.2 °F 64% 30.25 in 10.0 mi West 17.3 mph 21.9 mph 0.03 in   Mostly Cloudy
2:32 PM 33.8 °F 22.8 °F 21.2 °F 60% 30.26 in 10.0 mi West 18.4 mph 26.5 mph 0.05 in   Mostly Cloudy
2:52 PM 33.8 °F 22.5 °F 21.2 °F 60% 30.26 in 10.0 mi West 19.6 mph 24.2 mph 0.08 in   Overcast
3:12 PM 33.8 °F 23.2 °F 19.4 °F 56% 30.27 in 10.0 mi West 17.3 mph - 0.01 in   Mostly Cloudy
3:32 PM 33.8 °F 22.2 °F 21.2 °F 60% 30.27 in 10.0 mi West 20.7 mph - 0.01 in   Overcast
3:52 PM 33.8 °F 21.6 °F 19.4 °F 56% 30.27 in 10.0 mi West 23.0 mph 27.6 mph 0.01 in   Mostly Cloudy
4:12 PM 33.8 °F 22.2 °F 19.4 °F 56% 30.27 in 10.0 mi West 20.7 mph 25.3 mph N/A   Mostly Cloudy
4:32 PM 33.8 °F 22.8 °F 19.4 °F 56% 30.27 in 10.0 mi West 18.4 mph 24.2 mph N/A   Mostly Cloudy
4:52 PM 33.8 °F 22.5 °F 19.4 °F 56% 30.28 in 10.0 mi West 19.6 mph 23.0 mph N/A   Mostly Cloudy
5:12 PM 32.0 °F 20.8 °F 19.4 °F 60% 30.28 in 10.0 mi West 17.3 mph 25.3 mph N/A   Mostly Cloudy
5:32 PM 33.8 °F 22.5 °F 19.4 °F 56% 30.27 in 10.0 mi West 19.6 mph 25.3 mph N/A   Mostly Cloudy
5:52 PM 33.8 °F 22.8 °F 17.6 °F 52% 30.28 in 10.0 mi West 18.4 mph 21.9 mph N/A   Scattered Clouds
6:12 PM 33.8 °F 22.8 °F 17.6 °F 52% 30.28 in 10.0 mi West 18.4 mph - N/A   Scattered Clouds
6:32 PM 33.8 °F 22.2 °F 17.6 °F 52% 30.28 in 10.0 mi West 20.7 mph 26.5 mph N/A   Mostly Cloudy
6:52 PM 32.0 °F 19.2 °F 17.6 °F 55% 30.28 in 10.0 mi West 23.0 mph 27.6 mph N/A   Scattered Clouds
7:12 PM 32.0 °F 20.1 °F 17.6 °F 55% 30.29 in 10.0 mi West 19.6 mph 25.3 mph N/A   Clear
7:32 PM 30.2 °F 17.4 °F 14.0 °F 51% 30.29 in 10.0 mi West 20.7 mph - N/A   Clear
7:52 PM 30.2 °F 17.1 °F 14.0 °F 51% 30.29 in 10.0 mi West 21.9 mph 26.5 mph N/A   Clear
8:12 PM 28.4 °F 14.4 °F 14.0 °F 55% 30.30 in 10.0 mi West 23.0 mph - N/A   Clear
8:32 PM 28.4 °F 15.4 °F 14.0 °F 55% 30.31 in 10.0 mi West 19.6 mph - N/A   Clear
8:52 PM 28.4 °F - 14.0 °F 55% 30.32 in 10.0 mi North - - N/A   Clear
9:12 PM 28.4 °F 16.6 °F 14.0 °F 55% 30.33 in 10.0 mi West 16.1 mph - N/A   Clear
9:32 PM 28.4 °F 15.4 °F 14.0 °F 55% 30.33 in 10.0 mi West 19.6 mph - N/A   Clear
9:52 PM 28.4 °F 15.4 °F 12.2 °F 51% 30.33 in 10.0 mi West 19.6 mph - N/A   Clear
10:12 PM 28.4 °F 15.4 °F 10.4 °F 47% 30.34 in 10.0 mi West 19.6 mph - N/A   Clear
10:32 PM 28.4 °F 16.6 °F 10.4 °F 47% 30.34 in 10.0 mi West 16.1 mph - N/A   Clear
10:52 PM 28.4 °F 17.0 °F 10.4 °F 47% 30.34 in 10.0 mi West 15.0 mph - N/A   Clear
11:12 PM 28.4 °F 16.2 °F 10.4 °F 47% 30.33 in 10.0 mi West 17.3 mph - N/A   Clear
11:32 PM 28.4 °F 16.2 °F 10.4 °F 47% 30.33 in 10.0 mi West 17.3 mph - N/A   Clear
11:52 PM 28.4 °F 15.4 °F 10.4 °F 47% 30.33 in 10.0 mi West 19.6 mph - N/A   Clear